Flag for Switzerland Weather past 2 weeks in Solothurn, Solothurn, Switzerland

Now
78 °F

Warm.


Feels Like: 79 °F
Forecast: 56 / 91 °F
Wind: 6 mph from East

Location: Grenchen

Current Time: Jun 30, 2015 at 12:07:49 PM

Latest Report: Jun 30, 2015 at 11:00 AM


Visibility: N/A

Pressure: 30.10 "Hg

Humidity: 49%

Dew point: 57 °F

Location of SolothurnLocation

Historic Weather in Solothurn — Graph

°F

Solothurn temperature yesterday

Maximum temperature yesterday: 83 °F (at 5:00 PM)
Minimum temperature yesterday: 54 °F (at 6:00 AM)
Average temperature yesterday: 69 °F

Past Weeks' High & Low Weather Summary

 TemperatureHumidityPressure
High83 °F (Jun 29, 5:00 PM)100% (Jun 22, 6:00 AM)30.25 "Hg (Jun 22, 6:00 AM)
Low44 °F (Jun 24, 5:00 AM)31% (Jun 28, 4:00 PM)29.75 "Hg (Jun 22, 9:00 PM)
Average63 °F70%30.10 "Hg
* Reported Jun 15 10:00 AM — Jun 30 10:00 AM, Solothurn, Weather by CustomWeather, © 2015

Note: Actual official high and low records may vary slightly from our data, if they occured in-between our weather recording intervals... More about our weather records

Advertising

Solothurn weather history for previous 24 hours

 ConditionsComfort  
Time TempWeatherWind HumidityBarometerVisibility
10:00 AM
Tue, Jun 30
73 °FMild.3 mph56%30.12 "HgN/A
9:00 AM69 °FMild.3 mph65%30.14 "HgN/A
8:00 AM64 °FMild.3 mph79%30.15 "HgN/A
7:00 AM59 °FCool.3 mph93%30.16 "HgN/A
6:00 AM56 °FCool.3 mph95%30.17 "HgN/A
5:00 AM57 °FCool.2 mph92%30.16 "HgN/A
4:00 AM56 °FCool.2 mph94%30.17 "HgN/A
3:00 AM59 °FCool.No wind90%30.17 "HgN/A
2:00 AM61 °FCool.1 mph85%30.17 "HgN/A
1:00 AM62 °FCool.2 mph83%30.18 "HgN/A
12:00 AM64 °FMild.2 mph76%30.18 "HgN/A
11:00 PM
Mon, Jun 29
67 °FMild.1 mph75%30.17 "HgN/A
10:00 PM69 °FMild.2 mph71%30.16 "HgN/A
9:00 PM74 °FMild.3 mph55%30.13 "HgN/A
8:00 PM80 °FWarm.5 mph43%30.11 "HgN/A
7:00 PM82 °FPleasantly warm.3 mph33%30.09 "HgN/A
6:00 PM83 °FPleasantly warm.3 mph34%30.09 "HgN/A
5:00 PM83 °FPleasantly warm.2 mph33%30.09 "HgN/A
4:00 PM82 °FPleasantly warm.3 mph34%30.11 "HgN/A
3:00 PM82 °FPleasantly warm.6 mph33%30.11 "HgN/A
2:00 PM82 °FPleasantly warm.3 mph34%30.11 "HgN/A
1:00 PM78 °FWarm.2 mph40%30.14 "HgN/A
12:00 PM75 °FMild.1 mph46%30.15 "HgN/A
Weather by CustomWeather, © 2015

See weather overviewHow to use our weather pages